Hourly Weather Roundup
Issued by NWS Central Illinois

Home | Current Version | Previous Version | Text Only | Print | Product List | Glossary On
Versions: 1 2 3 4 5 6 7 8 9 10 11 12 13 14 15 16 17 18 19 20 21 22 23 24 25 26 27 28 29 30 31 32 33 34 35 36 37 38 39 40 41 42 43 44 45 46 47 48 49 50
894
NZUS43 KILX 071410
HWRILX

AREA WEATHER ROUNDUP
NATIONAL WEATHER SERVICE, LINCOLN IL
800 AM CST WED DEC 07 2016


CITY           SKY/WX    TMP DP  RH WIND       PRES   REMARKS
BLOOMINGTON    CLOUDY    27  18  69 W9        30.13R WCI  18
CHAMPAIGN      CLOUDY    29  22  75 W7        30.14R WCI  22
DANVILLE       CLOUDY    29  22  76 W5        30.10F WCI  24
DECATUR        CLOUDY    29  18  63 W7        30.17R WCI  22
EFFINGHAM      MOCLDY    29  25  83 S5        30.21R WCI  24
FLORA          CLEAR     28  25  87 SW5       30.22R WCI  23
GALESBURG      PTCLDY    24  19  79 W10       30.14R WCI  14
JACKSONVILLE   CLOUDY    29  19  65 W6        30.20R WCI  23
LACON          PTCLDY    26  18  71 W7        30.13R WCI  18
LAWRENCEVILLE  CLEAR     29  25  85 S5        30.21S WCI  24
LITCHFIELD     CLOUDY    29  23  78 SW3       30.19R
$$


CITY           SKY/WX    TMP DP  RH WIND       PRES   REMARKS
LINCOLN        CLOUDY    29  21  71 W3        30.17R
MACOMB         CLEAR     27  19  74 W10       30.20R WCI  17
MATTOON        MOCLDY    29  18  63 SW5       30.16R WCI  24
MT CARMEL AP   PTCLDY    29  26  88 S3        30.21R
OLNEY-NOBLE AP CLEAR     28  28 100 CALM      30.22R
PARIS          PTCLDY    29  24  82 SW5       30.17R WCI  24
PEORIA         CLOUDY    27  17  66 W7        30.15R WCI  19
PONTIAC        CLOUDY    28  23  81 W13       30.11S WCI  17
RANTOUL        CLOUDY    30  24  78 SW7       30.13R WCI  23
SPRINGFIELD    CLOUDY    30  21  69 SW3       30.18R
TAYLORVILLE    CLOUDY    28  23  79 SW5       30.19R WCI  23
$$

...REGIONAL REPORTS...


CITY           SKY/WX    TMP DP  RH WIND       PRES   REMARKS
CHICAGO O`HARE CLOUDY    24  16  71 W15G23    30.07R WCI  11
KANKAKEE       CLOUDY    28  21  74 W13       30.10S WCI  17
MOLINE         CLOUDY    23  15  71 W12       30.14R WCI  12
MOUNT STERLING CLOUDY    28  18  67 W6        30.18R WCI  21
MOUNT VERNON   NOT AVBL
PITTSFIELD     CLOUDY    30  19  63 CALM      30.20R
QUINCY         CLOUDY    28  17  63 NW10      30.19R WCI  19
ROCKFORD       CLOUDY    21  14  74 W7        30.09S WCI  12
$$


CITY           SKY/WX    TMP DP  RH WIND       PRES   REMARKS
BURLINGTON     PTCLDY    24  16  71 NW7       30.17R WCI  16
CEDAR RAPIDS   CLOUDY    17  14  88 W13       30.13R WCI   4
DES MOINES     CLOUDY    18   9  68 NW12      30.20R WCI   5
KIRKSVILLE     CLOUDY    25  14  63 W6        30.19S WCI  18
OTTUMWA        PTCLDY    21  12  68 W8        30.19R WCI  11
ST LOUIS       CLOUDY    33  17  51 W6        30.21R WCI  28
$$


CITY           SKY/WX    TMP DP  RH WIND       PRES   REMARKS
TERRE HAUTE    CLEAR     29  22  75 SW3       30.18S
EVANSVILLE     SUNNY     30  25  81 CALM      30.22S
INDIANAPOLIS   PTCLDY    27  23  85 SW8       30.15R WCI  19
LAFAYETTE      PTCLDY    28  20  71 SW7       30.13R WCI  21
MADISON        CLOUDY    19  12  74 W8G18     30.02R WCI   9
MILWAUKEE      MOCLDY    23  14  68 W15G22    30.01R WCI  10
$$






USA.gov is the U.S. government's official web portal to all federal, state and local government web resources and services.